{"data":{"norad_id":43662,"epoch":"2026-05-25T04:41:30.665184Z","epoch_age_seconds":61341,"freshness":"FRESH","line1":"1 43662U 18083A   26145.19549381  .00002877  00000+0  15086-3 0  9995","line2":"2 43662  97.3609 150.4051 0001204  65.6757 294.4602 15.16536984418958","mean_motion":15.16536984,"eccentricity":0.0001204,"inclination_deg":97.3609,"raan_deg":150.4051,"arg_perigee_deg":65.6757,"mean_anomaly_deg":294.4602,"bstar":0.00015086,"rev_number":41895,"period_min":94.953173921408,"perigee_km":515.48625726782,"apogee_km":517.14644163437,"semimajor_km":6894.4533494511,"source":"CELESTRAK","updated_at":"2026-05-25T13:37:55.865928Z"}}